Theta_e
321 318 318 320 317 312 313 314 311 310 310 314 315 316 317 314 311 310 310 310 309 309 311 312 313 313 314 313 313 313 312 313 313 315 317 315 317 321 322 325 327 329 331 330
320 319 316 316 317 314 312 313 313 311 314 313 314 314 312 311 310 309 309 309 309 309 309 310 312 312 312 311 311 311 311 312 313 315 318 318 317 320 323 327 328 329 331 331
317 315 316 317 318 318 316 314 313 312 313 313 314 311 312 311 311 310 310 310 310 309 308 307 309 309 309 309 309 309 310 311 313 319 320 318 316 324 324 325 326 327 328 327
317 314 315 317 317 317 319 314 314 314 315 313 312 313 311 310 309 309 310 309 310 309 307 307 307 307 307 306 306 307 308 310 313 318 320 321 321 317 314 315 317 318 319 321
316 318 316 317 317 316 318 315 316 316 316 316 315 314 311 310 312 310 308 307 308 308 306 307 306 307 306 304 304 304 306 308 310 313 316 318 316 312 310 310 312 310 309 308
314 314 314 315 314 315 315 316 316 315 316 318 314 313 309 309 311 308 307 308 306 306 306 305 306 305 304 301 301 302 304 304 306 308 309 310 310 308 308 307 307 305 304 303
314 315 314 313 315 315 316 316 318 317 318 314 310 314 311 309 309 308 309 308 308 306 306 304 303 302 302 300 299 300 301 300 301 303 303 303 302 302 302 300 299 299 298 297
315 318 314 315 315 316 317 316 316 315 315 312 310 315 312 309 309 309 307 307 307 305 305 304 302 301 301 300 299 298 299 299 298 298 298 298 298 298 297 296 296 296 295 295
313 313 312 313 313 314 316 319 311 312 302 307 309 308 307 308 308 309 308 308 306 305 303 302 300 301 300 299 299 298 297 297 297 297 297 296 295 295 296 296 295 295 293 292
311 313 313 313 313 313 315 313 317 310 309 309 310 308 309 310 308 308 310 309 307 305 303 301 300 300 299 298 298 297 296 296 295 295 294 294 294 294 294 292 292 291 291 290
310 311 313 312 314 316 315 317 317 315 309 308 308 308 304 307 307 307 307 309 307 305 303 301 300 299 299 298 296 296 295 294 293 293 293 292 291 290 290 290 289 289 289 289
311 310 313 314 312 310 314 315 316 318 313 312 312 314 306 304 306 307 306 305 306 305 303 300 299 297 297 297 295 294 294 293 292 291 291 290 289 288 288 288 287 287 287 287
311 312 312 314 313 310 313 313 314 314 312 314 313 312 307 305 305 306 305 304 305 304 301 299 296 295 294 295 294 294 293 292 291 290 289 288 287 286 286 286 285 286 286 286
312 311 312 312 310 312 313 314 313 315 317 314 313 312 309 307 306 306 305 304 303 304 302 300 297 295 295 293 294 293 292 291 290 289 288 287 286 285 285 285 284 285 285 285
312 310 311 310 307 309 311 313 314 315 315 316 313 313 311 310 307 306 306 305 303 304 302 300 299 296 294 293 292 292 292 290 289 287 286 286 285 284 284 284 284 284 284 284
311 314 310 311 308 308 310 311 313 314 313 313 313 312 310 307 306 305 304 303 302 301 302 301 299 297 294 293 292 291 290 289 287 286 286 285 284 283 283 282 282 283 283 283
305 311 313 314 309 309 312 310 311 312 312 313 314 312 310 310 307 307 306 306 307 306 301 301 301 299 297 295 294 290 289 288 286 285 284 283 283 282 282 282 281 281 281 281
304 304 308 313 312 315 311 309 308 309 309 310 311 310 309 309 308 305 304 306 305 303 302 300 300 300 299 298 293 290 287 287 285 284 283 282 282 281 281 281 281 281 280 280
303 304 308 315 312 309 307 304 309 309 310 308 308 309 308 308 304 304 302 301 303 302 300 301 302 301 301 298 293 289 285 285 283 282 282 281 281 280 280 280 279 279 279 279
304 305 308 313 314 313 308 304 303 305 309 305 307 307 307 305 306 306 304 299 299 299 297 296 296 295 293 290 288 285 283 282 281 281 281 281 280 280 279 279 279 278 278 278
308 310 311 313 312 304 301 300 302 308 307 304 303 305 305 305 305 301 295 295 291 290 289 289 289 289 287 286 285 283 281 281 280 281 280 279 279 278 278 277 277 277 277 277
307 311 308 311 311 312 300 300 305 304 302 301 299 301 301 301 299 297 292 290 287 285 284 283 283 282 282 283 283 280 280 279 280 280 279 278 277 277 277 275 275 275 275 275
304 305 308 309 308 305 300 302 300 298 300 300 298 297 296 296 296 294 292 287 285 283 281 281 281 280 280 281 281 279 277 279 278 277 276 275 275 275 274 274 274 274 274 274
302 301 304 303 302 302 302 297 297 296 298 298 296 295 294 296 295 293 289 286 283 281 280 279 279 278 278 279 279 280 277 277 277 275 274 273 273 273 273 273 273 273 273 272
297 299 302 300 300 299 298 297 298 296 295 296 294 293 292 292 292 291 288 285 282 280 279 278 278 276 275 276 277 277 276 275 274 273 272 272 272 272 272 272 271 271 271 271
296 299 300 302 298 300 299 298 296 294 293 292 290 291 288 288 289 288 285 283 281 278 277 276 276 274 273 274 274 274 274 274 273 272 272 271 271 271 270 270 270 270 270 271
Wind_Speed
3 4 9 15 14 3 5 4 5 3 5 3 8 7 11 8 3 7 8 8 7 9 5 12 15 15 13 10 7 5 5 5 7 7 6 7 5 5 6 8 11 12 12 11
3 8 6 5 3 4 4 4 3 4 3 5 3 7 8 7 6 7 9 9 10 5 5 11 16 15 12 9 5 3 3 3 4 5 6 5 4 3 3 5 4 8 9 9
6 4 11 8 5 7 4 5 4 4 4 4 6 6 7 8 6 10 14 13 11 13 10 8 15 14 12 9 7 5 3 1 1 1 3 5 9 10 10 10 10 8 6 5
4 2 11 6 8 7 6 6 5 3 2 4 1 6 6 6 8 6 14 15 17 10 7 9 16 17 15 12 9 7 5 5 3 4 5 10 12 11 10 11 11 10 8 5
6 7 8 10 6 7 5 6 7 4 3 0 3 4 6 4 6 11 10 12 15 14 12 13 16 21 17 15 12 9 8 8 7 6 8 10 13 13 12 10 8 6 6 6
5 1 7 9 6 10 7 6 5 4 2 6 8 8 5 6 11 5 7 8 8 8 9 10 19 21 19 15 13 12 10 10 8 8 10 10 12 12 10 8 6 5 5 5
4 3 2 3 5 3 5 8 1 1 4 7 2 8 12 7 9 7 8 8 7 8 12 13 13 18 20 18 15 13 11 11 9 9 10 10 11 11 10 10 8 7 6 6
7 5 8 6 7 8 11 10 5 8 5 4 2 7 6 10 9 9 10 6 5 7 9 11 14 18 21 19 16 14 12 11 9 8 9 8 8 8 9 7 6 5 4 4
8 6 2 5 4 10 5 9 5 4 2 2 4 6 8 9 9 5 3 5 8 10 11 11 15 22 24 21 17 15 13 11 10 9 8 8 7 7 6 5 4 3 3 2
7 2 3 6 4 2 7 8 3 2 2 4 5 5 7 2 10 5 5 8 8 6 8 8 13 22 23 19 17 15 14 13 12 11 10 8 7 6 6 6 5 4 2 2
4 3 1 5 9 14 5 7 5 5 5 5 2 6 7 13 6 8 7 7 7 8 9 9 13 20 22 20 20 18 17 17 15 13 11 10 9 8 7 6 5 4 4 4
8 4 5 6 1 3 16 10 15 6 5 4 2 14 3 6 8 4 5 7 8 8 7 8 13 19 23 25 23 23 21 20 18 15 13 11 10 9 8 7 6 6 5 6
10 6 2 2 4 3 6 11 9 6 3 15 6 12 7 8 7 3 2 4 6 8 9 7 9 15 22 26 28 27 25 22 19 17 16 14 13 12 10 9 7 7 7 8
11 5 16 17 10 7 8 14 17 14 6 11 17 18 6 6 6 1 3 4 1 7 9 11 7 17 21 26 30 30 27 24 22 20 19 18 16 14 12 10 9 9 9 10
7 8 10 21 6 9 15 16 16 18 26 12 24 22 21 17 6 8 8 6 6 9 9 10 12 13 21 23 28 31 31 29 26 24 23 21 18 15 13 12 11 11 12 12
4 7 8 11 9 7 6 16 23 27 26 19 23 22 12 4 6 5 8 7 8 9 10 12 13 15 18 25 31 33 35 33 29 28 26 22 19 16 14 13 13 13 13 14
2 5 7 14 8 6 8 21 20 20 23 25 20 27 24 19 10 11 9 12 16 12 10 11 14 20 27 32 38 39 38 36 33 29 25 23 20 18 16 15 14 14 14 14
6 5 6 8 7 14 15 16 16 20 15 19 16 21 21 16 12 8 12 13 10 10 11 10 13 21 30 33 31 30 31 34 33 30 27 24 21 19 17 17 16 15 14 13
14 4 5 8 14 4 4 7 19 17 25 19 18 26 26 20 3 12 11 9 14 12 11 18 20 22 25 29 32 34 33 35 32 30 28 25 23 21 19 17 15 14 13 12
16 13 9 7 11 11 18 8 5 6 7 16 24 24 20 9 6 16 7 8 12 15 8 9 11 9 13 19 25 27 27 29 28 29 27 24 23 22 21 19 17 14 13 10
5 5 14 12 5 6 8 6 10 10 10 11 11 19 19 12 14 6 5 3 2 3 4 5 6 8 12 17 23 24 23 21 23 24 24 23 20 18 15 14 13 13 11 10
7 7 5 7 10 13 2 4 13 8 2 4 8 10 10 12 11 7 7 6 6 5 4 3 5 7 10 16 21 19 19 22 24 24 22 20 21 21 19 14 10 7 6 8
5 5 6 5 4 10 8 6 4 2 5 5 6 7 10 9 8 8 6 7 6 8 8 8 11 12 13 17 20 21 20 22 22 21 21 20 19 15 14 16 14 12 10 10
4 4 4 4 8 12 13 7 6 7 8 8 8 6 8 8 8 7 6 6 6 12 14 16 18 17 16 17 18 19 22 23 23 22 20 19 18 16 14 13 13 12 10 9
5 1 6 4 7 5 7 7 6 8 4 4 2 5 8 7 8 7 6 7 6 11 14 16 16 15 16 19 19 19 21 23 23 23 21 18 16 14 12 9 8 7 8 9
5 7 3 5 2 5 8 3 4 7 8 9 7 7 5 7 8 4 6 6 12 13 17 16 16 18 18 19 19 18 20 23 25 23 21 19 18 15 13 11 9 7 5 6
Wind_Direction
187 149 192 195 202 112 138 160 191 228 264 195 225 237 240 265 293 269 259 255 243 241 241 177 166 167 165 178 194 219 252 277 289 292 286 254 256 261 260 257 247 247 249 251
121 227 199 153 153 150 128 156 207 284 283 189 261 256 251 252 238 230 241 239 235 222 174 168 171 176 182 172 174 200 236 270 304 300 277 249 159 58 104 83 187 215 218 236
179 222 166 173 167 184 208 182 175 210 350 342 343 283 245 262 239 239 245 235 242 209 189 179 179 171 156 158 166 175 182 167 338 290 236 191 184 131 105 102 111 123 169 219
250 252 180 158 195 165 213 184 172 183 86 237 75 285 275 259 259 232 244 234 236 218 165 182 171 167 162 161 164 166 148 122 111 139 141 159 161 134 109 107 110 105 101 111
216 187 179 198 187 156 205 156 172 169 196 255 202 293 265 260 279 258 257 238 235 215 179 177 171 168 165 166 165 154 136 118 110 129 133 135 129 127 131 128 124 107 84 74
206 283 166 186 172 172 154 85 56 60 102 258 203 196 222 205 222 264 268 247 235 182 163 153 163 164 159 163 160 154 141 126 128 128 128 135 137 140 140 136 133 119 96 71
164 235 250 168 129 84 136 120 85 266 222 238 252 210 259 270 264 225 250 270 213 170 158 156 160 160 164 167 167 159 150 138 137 138 134 132 131 134 131 127 122 111 92 66
173 204 180 193 181 176 175 167 163 201 210 245 107 226 253 238 258 255 247 278 123 141 160 166 167 167 173 175 172 166 160 155 154 150 143 143 143 143 135 131 118 102 91 62
176 238 162 175 158 154 187 201 159 113 31 30 230 288 294 257 266 293 184 153 171 177 174 169 165 176 181 179 178 175 171 171 174 177 172 166 167 163 148 139 143 145 138 95
198 175 232 180 95 333 173 150 167 66 204 251 259 260 234 275 240 218 191 208 202 167 165 168 178 185 187 181 180 183 185 186 188 190 190 187 186 182 175 168 160 156 135 115
193 131 223 132 205 187 160 189 204 178 170 197 245 252 220 232 206 202 226 235 219 197 183 184 192 192 189 188 190 190 193 195 195 197 201 199 193 189 186 181 175 175 162 143
191 142 176 190 86 312 218 215 197 195 217 237 254 256 293 231 171 158 239 235 212 206 193 194 192 184 191 196 196 196 197 200 201 198 197 201 202 201 197 192 185 175 163 144
178 207 121 358 308 340 211 217 212 208 96 235 217 261 232 185 235 124 292 279 227 198 190 199 180 189 196 202 205 204 205 205 201 199 199 202 202 202 198 192 183 171 160 153
185 207 217 222 217 145 207 210 215 208 210 225 226 248 260 216 186 281 269 297 209 217 211 204 195 208 207 206 209 211 209 207 204 201 201 202 201 200 198 191 183 172 164 158
186 213 221 238 204 197 204 204 208 208 224 204 242 240 242 246 254 244 265 288 213 229 214 214 218 214 211 209 211 216 214 208 205 201 201 203 201 199 194 189 182 173 167 159
269 239 216 247 211 195 201 207 207 214 224 233 250 261 245 236 217 226 213 210 223 237 228 218 221 220 211 212 212 213 216 211 206 204 203 200 198 194 190 184 178 173 167 159
288 282 208 238 187 185 231 218 206 217 221 218 232 244 259 258 230 227 229 239 246 244 228 224 221 218 219 217 215 210 209 207 204 205 203 199 195 191 187 184 181 177 171 164
189 265 273 228 158 220 231 218 203 210 222 218 244 253 254 254 251 221 223 231 242 238 242 237 225 227 230 228 217 209 204 205 202 202 202 198 194 191 187 184 184 180 176 170
206 189 262 238 215 289 290 207 194 193 231 220 223 244 254 261 48 267 230 207 223 232 236 244 258 253 241 226 213 204 194 197 192 192 197 195 194 191 187 187 186 182 178 172
217 210 231 237 204 205 228 197 145 99 240 215 215 237 251 253 248 264 247 205 223 231 241 279 277 259 226 206 200 185 178 179 182 188 195 195 194 193 189 188 185 183 181 173
193 181 245 253 228 280 256 156 126 169 227 242 182 222 235 234 228 256 129 151 138 207 255 257 246 217 204 196 187 174 173 177 181 189 188 184 184 185 192 190 185 178 178 176
194 164 221 234 237 241 117 53 169 206 168 188 188 210 216 232 248 228 193 194 195 180 160 175 157 158 176 185 182 162 160 176 184 183 182 182 178 176 176 176 176 173 171 164
254 214 172 191 223 206 204 258 239 173 214 226 170 206 214 236 236 222 230 190 198 195 171 171 164 158 169 179 184 159 170 177 175 173 173 173 173 172 170 170 170 171 173 179
253 217 238 116 238 240 234 220 189 186 220 229 231 195 188 217 233 231 212 197 185 184 184 178 168 160 155 171 177 186 177 178 173 168 168 169 170 164 167 172 173 173 179 181
220 263 205 259 278 355 295 253 231 235 263 286 238 219 206 200 232 221 221 214 194 180 183 183 174 165 162 168 171 176 177 175 168 167 166 166 168 166 163 168 172 176 188 195
175 214 195 242 193 200 250 244 198 214 222 234 229 251 229 209 228 211 238 207 181 172 179 175 176 178 172 170 168 173 178 178 171 165 167 170 169 166 165 171 166 173 184 190